Regional Weather Roundup
Issued by NWS

Home | Current Version | Previous Version | Graphics & Text | Print | Product List | Glossary On
Versions: 1 2 3 4 5 6 7 8 9 10 11 12 13 14 15 16 17 18 19 20 21 22 23 24 25 26 27 28 29 30 31 32 33 34 35 36 37 38 39 40 41 42 43 44 45 46 47 48 49 50
000
ASUS44 KMEG 212310
RWRTN
TENNESSEE HOURLY STATE WEATHER ROUNDUP
NATIONAL WEATHER SERVICE MEMPHIS TN
600 PM CDT TUE OCT 21 2014

TNZ002-004-019-021-049-052-054-088>092-220000-
WEST TENNESSEE

CITY           SKY/WX    TMP DP  RH WIND       PRES   REMARKS
MEMPHIS INTL   CLEAR     71  45  39 N7        30.05S
NWS MEMPHIS      N/A     68 N/A N/A MISG        N/A
JACKSON        CLEAR     68  47  46 NW5       30.04S
DYERSBURG      CLEAR     66  43  42 N7        30.06S
UNION CITY     CLEAR     64  46  52 N6        30.05R
PARIS          CLEAR     64  45  48 N6        30.06S
LEXINGTON      CLEAR     66  46  48 NW3       30.03S
SAVANNAH       CLEAR     68  48  49 CALM      30.04R
$$

TNZ008-025-027-028-033-062-065-066-220000-
NORTH MIDDLE TENNESSEE

CITY           SKY/WX    TMP DP  RH WIND       PRES   REMARKS
NASHVILLE      CLEAR     66  45  46 N9        30.04R
CLARKSVILLE    CLEAR     64  44  48 N9        30.06R
SMYRNA         CLEAR     65  47  52 N9        30.04R
COOKEVILLE     PTCLDY    61  46  59 NE3       30.04R
CROSSVILLE     CLEAR     59  42  53 N8        30.05R
$$

TNZ061-075-076-078-094-096-097-220000-
SOUTH MIDDLE TENNESSEE

CITY           SKY/WX    TMP DP  RH WIND       PRES   REMARKS
FAYETTEVILLE   CLEAR     64  45  48 N23G44    30.02S
TULLAHOMA      CLEAR     63  45  51 N6        30.04R
WINCHESTER     CLEAR     64  46  52 N5        30.03R
MCMINNVILLE    PTCLDY    63  48  59 CALM      30.03R
COLUMBIA       CLEAR     66  48  52 NW3       30.02R
SHELBYVILLE    CLEAR     66  48  52 NW6       30.04R
$$

TNZ017-018-042-046-047-220000-
NORTHEAST TENNESSEE

CITY           SKY/WX    TMP DP  RH WIND       PRES   REMARKS
TRI CITIES     MOCLDY    55  39  54 N10       30.03R
ELIZABETHTON   MOCLDY    54  37  54 NW7       30.02R
$$

TNZ012-013-036-069-073-074-220000-
CENTRAL EAST TENNESSEE

CITY           SKY/WX    TMP DP  RH WIND       PRES   REMARKS
KNOXVILLE      PTCLDY    62  43  49 N9        30.01R
OAK RIDGE      CLEAR     63  42  46 VRB7G16   30.04R
GATLINBURG     MOCLDY    61  41  48 N7        30.01R
MORRISTOWN     PTCLDY    55  43  62 N12       30.04R
$$

TNZ083-085-099-220000-
SOUTHEAST TENNESSEE

CITY           SKY/WX    TMP DP  RH WIND       PRES   REMARKS
CHATTANOOGA    PTCLDY    66  45  46 N9        30.01R
$$

SKY/WX REPORTED AS FAIR MEANS FEW OR NO CLOUDS BELOW
12 THOUSAND FEET.




USA.gov is the U.S. government's official web portal to all federal, state and local government web resources and services.